Miscellaneous Local Product
Issued by NWS Hastings, NE

Home | Current Version | Previous Version | Text Only | Print | Product List | Glossary Off
Versions: 1 2 3 4 5 6 7 8 9 10 11 12 13 14 15 16 17 18 19 20 21 22 23 24 25 26 27 28 29 30 31 32 33 34 35 36 37 38 39 40 41 42 43 44 45 46 47 48 49 50

000
AXUS43 KGID 190702
MISGRI

GID CWA HOURLY WEATHER ROUNDUP
NATIONAL WEATHER SERVICE HASTINGS NE
200 AM CDT TUE AUG 19 2014

NOTE: "FAIR" INDICATES FEW OR NO CLOUDS BELOW 12,000 FEET WITH NO
SIGNIFICANT WEATHER AND/OR OBSTRUCTIONS TO VISIBILITY.

...SOUTH CENTRAL NEBRASKA...

CITY           SKY/WX    TMP DP  RH WIND       PRES   REMARKS
GRAND ISLAND   CLOUDY    71  67  87 NW5       29.84S
HASTINGS       CLOUDY    71  66  84 N5        29.83F
KEARNEY        CLOUDY    73  70  88 W3        29.85F
ORD            PTCLDY    66  63  90 NW6       29.86F
AURORA         CLOUDY    69  69 100 NW5       29.83S
LEXINGTON      MOCLDY    68  66  93 CALM      29.88S
HOLDREGE       CLOUDY    69  64  86 W5        29.86S
HEBRON         CLOUDY    72  69  90 CALM      29.80S

...NEBRASKA PANHANDLE...

CITY           SKY/WX    TMP DP  RH WIND       PRES   REMARKS
CHADRON        CLEAR     61  54  77 CALM      29.92F
ALLIANCE       PTCLDY    58  54  86 NE6       29.95F
SCOTTSBLUFF    PTCLDY    61  57  87 NE7       29.94F
SIDNEY         CLOUDY    60  53  77 W9        30.00R

...WESTERN AND NORTH CENTRAL NEBRASKA...

CITY           SKY/WX    TMP DP  RH WIND       PRES   REMARKS
VALENTINE      CLEAR     61  57  87 NW6       29.90S
AINSWORTH      CLEAR     61  58  91 SW5       29.90R
ONEILL         PTCLDY    65  61  87 SW5       29.87R
BROKEN BOW     PTCLDY    68  63  84 E6        29.89S
IMPERIAL       CLEAR     62  57  83 NW6       29.94R
NORTH PLATTE   PTCLDY    63  61  93 CALM      29.91R
MCCOOK         MOCLDY    69  57  65 W5        29.89F

...EASTERN NEBRASKA...

CITY           SKY/WX    TMP DP  RH WIND       PRES   REMARKS
NORFOLK        PTCLDY    69  63  81 CALM      29.82F
SO SIOUX CITY  CLEAR     66  63  90 SW6       29.80R
TEKAMAH        MOCLDY    71  68  90 N5        29.78F
COLUMBUS       MOCLDY    70  66  88 N5        29.82F
ALBION         PTCLDY    66  62  85 N3        29.85F
OMAHA EPPLEY   PTCLDY    74  69  85 NW3       29.78F
OFFUTT AFB     PTCLDY    71  71 100 N3        29.77F
MILLARD        PTCLDY    73  69  89 CALM      29.78F
LINCOLN        CLOUDY    71  68  90 N5        29.79F
NEBRASKA CITY  MOCLDY    73  69  86 SW7       29.78F
BEATRICE       CLOUDY    71  69  95 NE3       29.79R
FALLS CITY     CLOUDY    71  69  93 SE3       29.75F

...NORTHERN KANSAS...

CITY           SKY/WX    TMP DP  RH WIND       PRES   REMARKS
GOODLAND       MOCLDY    65  57  75 S14       29.95F
HILL CITY      CLOUDY    71  58  63 N7        29.86R
NORTON         SUNNY     68  61  77 SW3       29.86F
PHILLIPSBURG   HVY RAIN  66  66 100 N5        29.86R
BELOIT         CLEAR     68  64  88 N3        29.79R
HAYS           CLOUDY    79  50  36 SW9       29.83F
RUSSELL        CLOUDY    80  52  37 SW9       29.79F
CONCORDIA      CLOUDY    69  68  96 E3        29.77F
SALINA         CLOUDY    73  64  73 NW6       29.83S
TOPEKA         MOCLDY    75  71  87 E5        29.80S



USA.gov is the U.S. government's official web portal to all federal, state and local government web resources and services.